• In Hungary
  • List of Countries
  • For 7 days
  • Water Temperature
  • Satellite Maps
  • Weather Map
  • News
  • Weather Widgets
  • user-avatar
    Login

    Hourly Weather Winchester

    Today, 18 October, Thursday

    Time Temperature Precipitation Wind Pressure Humidity
    00:00 +12°C° 0 mm 4 mps 762 mmHg 89%
    01:00 +11°C° 0 mm 4 mps 762 mmHg 90%
    02:00 +11°C° 0 mm 4 mps 762 mmHg 92%
    03:00 +9°C° 0 mm 5 mps 762 mmHg 93%
    04:00 +10°C° 0 mm 4 mps 763 mmHg 94%
    05:00 +8°C° 0 mm 4 mps 763 mmHg 94%
    06:00 +8°C° 0 mm 4 mps 763 mmHg 94%
    07:00 +10°C° 0 mm 4 mps 763 mmHg 91%
    08:00 +10°C° 0 mm 5 mps 763 mmHg 88%
    09:00 +12°C° 0 mm 5 mps 764 mmHg 85%
    10:00 +13°C° 0 mm 5 mps 764 mmHg 80%
    11:00 +14°C° 0 mm 5 mps 764 mmHg 76%
    12:00 +15°C° 0 mm 5 mps 764 mmHg 71%
    13:00 +15°C° 0 mm 5 mps 763 mmHg 70%
    14:00 +15°C° 0 mm 5 mps 763 mmHg 69%
    15:00 +15°C° 0 mm 5 mps 763 mmHg 68%
    16:00 +14°C° 0 mm 4 mps 763 mmHg 73%
    17:00 +13°C° 0 mm 4 mps 763 mmHg 79%
    18:00 +11°C° 0 mm 3 mps 763 mmHg 84%
    19:00 +11°C° 0 mm 3 mps 763 mmHg 85%
    20:00 +10°C° 0 mm 4 mps 763 mmHg 87%
    21:00 +10°C° 0 mm 4 mps 763 mmHg 88%
    22:00 +10°C° 0 mm 3 mps 763 mmHg 89%
    23:00 +9°C° 0 mm 3 mps 763 mmHg 90%

    Tomorrow, 19 October, Friday

    Time Temperature Precipitation Wind Pressure Humidity
    00:00 +9°C° 0 mm 3 mps 763 mmHg 91%
    01:00 +9°C° 0 mm 3 mps 763 mmHg 92%
    02:00 +8°C° 0 mm 3 mps 763 mmHg 93%
    03:00 +8°C° 0 mm 3 mps 763 mmHg 93%
    04:00 +8°C° 0 mm 3 mps 763 mmHg 94%
    05:00 +8°C° 0 mm 3 mps 763 mmHg 94%
    06:00 +8°C° 0 mm 3 mps 763 mmHg 94%
    07:00 +9°C° 0 mm 3 mps 763 mmHg 91%
    08:00 +10°C° 0 mm 2 mps 764 mmHg 87%
    09:00 +12°C° 0 mm 2 mps 764 mmHg 83%
    10:00 +14°C° 0 mm 2 mps 764 mmHg 78%
    11:00 +15°C° 0 mm 2 mps 764 mmHg 73%
    12:00 +16°C° 0 mm 2 mps 764 mmHg 67%
    13:00 +16°C° 0 mm 2 mps 764 mmHg 66%
    14:00 +17°C° 0 mm 2 mps 764 mmHg 64%
    15:00 +17°C° 0 mm 2 mps 764 mmHg 63%
    16:00 +15°C° 0 mm 2 mps 764 mmHg 69%
    17:00 +14°C° 0 mm 2 mps 764 mmHg 75%
    18:00 +12°C° 0 mm 2 mps 764 mmHg 81%
    19:00 +12°C° 0 mm 2 mps 765 mmHg 82%
    20:00 +12°C° 0 mm 2 mps 766 mmHg 84%
    21:00 +10°C° 0 mm 2 mps 766 mmHg 86%
    22:00 +10°C° 0 mm 2 mps 766 mmHg 87%
    23:00 +10°C° 0 mm 2 mps 766 mmHg 88%

    Day after tomorrow, 20 October, Saturday

    Time Temperature Precipitation Wind Pressure Humidity
    00:00 +9°C° 0 mm 2 mps 766 mmHg 89%
    01:00 +9°C° 0 mm 2 mps 766 mmHg 89%
    02:00 +9°C° 0 mm 2 mps 767 mmHg 90%
    03:00 +9°C° 0 mm 2 mps 767 mmHg 90%
    04:00 +10°C° 0 mm 1 mps 767 mmHg 90%
    05:00 +10°C° 0 mm 1 mps 767 mmHg 90%
    06:00 +9°C° 0 mm 1 mps 767 mmHg 90%
    07:00 +10°C° 0 mm 2 mps 767 mmHg 86%
    08:00 +12°C° 0 mm 2 mps 768 mmHg 82%
    09:00 +13°C° 0 mm 2 mps 768 mmHg 78%
    10:00 +15°C° 0 mm 2 mps 768 mmHg 73%
    11:00 +16°C° 0 mm 2 mps 768 mmHg 67%
    12:00 +17°C° 0 mm 2 mps 768 mmHg 61%
    13:00 +17°C° 0 mm 2 mps 768 mmHg 60%
    14:00 +19°C° 0 mm 1 mps 768 mmHg 60%
    15:00 +19°C° 0 mm 1 mps 768 mmHg 59%
    16:00 +16°C° 0 mm 1 mps 768 mmHg 66%
    17:00 +15°C° 0 mm 1 mps 768 mmHg 72%
    18:00 +13°C° 0 mm 1 mps 768 mmHg 79%
    19:00 +13°C° 0 mm 1 mps 768 mmHg 81%
    20:00 +12°C° 0 mm 1 mps 768 mmHg 82%
    21:00 +12°C° 0 mm 1 mps 768 mmHg 84%
    22:00 +12°C° 0 mm 1 mps 768 mmHg 85%
    23:00 +11°C° 0 mm 1 mps 768 mmHg 86%

    21 October, Sunday

    Time Temperature Precipitation Wind Pressure Humidity
    00:00 +11°C° 0 mm 1 mps 768 mmHg 87%
    01:00 +11°C° 0 mm 1 mps 767 mmHg 87%
    02:00 +11°C° 0 mm 1 mps 767 mmHg 87%
    03:00 +10°C° 0 mm 1 mps 767 mmHg 88%
    04:00 +10°C° 0 mm 1 mps 767 mmHg 88%
    05:00 +10°C° 0 mm 1 mps 767 mmHg 88%
    06:00 +10°C° 0 mm 1 mps 767 mmHg 88%
    07:00 +11°C° 0 mm 1 mps 767 mmHg 84%
    08:00 +12°C° 0 mm 1 mps 767 mmHg 80%
    09:00 +13°C° 0 mm 1 mps 767 mmHg 75%
    10:00 +15°C° 0 mm 1 mps 767 mmHg 69%
    11:00 +16°C° 0 mm 1 mps 767 mmHg 63%
    12:00 +19°C° 0 mm 1 mps 767 mmHg 57%
    13:00 +19°C° 0 mm 1 mps 766 mmHg 57%
    14:00 +19°C° 0 mm 1 mps 766 mmHg 57%
    15:00 +19°C° 0 mm 1 mps 766 mmHg 58%
    16:00 +17°C° 0 mm 2 mps 766 mmHg 65%
    17:00 +15°C° 0 mm 2 mps 766 mmHg 72%
    18:00 +13°C° 0 mm 2 mps 766 mmHg 80%
    19:00 +12°C° 0 mm 3 mps 767 mmHg 83%
    20:00 +13°C° 0 mm 3 mps 767 mmHg 86%
    21:00 +13°C° 0 mm 4 mps 767 mmHg 89%
    22:00 +13°C° 0 mm 5 mps 768 mmHg 87%
    23:00 +11°C° 0 mm 6 mps 768 mmHg 84%

    22 October, Monday

    Time Temperature Precipitation Wind Pressure Humidity
    00:00 +11°C° 0 mm 7 mps 768 mmHg 82%
    01:00 +11°C° 0.1 mm 7 mps 769 mmHg 79%
    02:00 +10°C° 0.1 mm 7 mps 769 mmHg 76%
    03:00 +10°C° 0.1 mm 7 mps 769 mmHg 74%
    04:00 +9°C° 0 mm 7 mps 770 mmHg 76%
    05:00 +8°C° 0 mm 7 mps 770 mmHg 79%
    06:00 +6°C° 0 mm 7 mps 771 mmHg 81%
    07:00 +6°C° 0 mm 7 mps 771 mmHg 79%
    08:00 +8°C° 0 mm 7 mps 772 mmHg 76%
    09:00 +8°C° 0 mm 7 mps 772 mmHg 73%
    10:00 +9°C° 0 mm 7 mps 772 mmHg 68%
    11:00 +10°C° 0 mm 6 mps 773 mmHg 63%
    12:00 +11°C° 0 mm 6 mps 773 mmHg 58%
    13:00 +11°C° 0 mm 6 mps 773 mmHg 57%
    14:00 +11°C° 0 mm 6 mps 773 mmHg 56%
    15:00 +12°C° 0 mm 5 mps 773 mmHg 56%
    16:00 +10°C° 0 mm 5 mps 773 mmHg 61%
    17:00 +8°C° 0 mm 5 mps 773 mmHg 66%
    18:00 +7°C° 0 mm 4 mps 773 mmHg 71%
    19:00 +7°C° 0 mm 4 mps 773 mmHg 75%
    20:00 +6°C° 0 mm 4 mps 774 mmHg 78%
    21:00 +6°C° 0 mm 4 mps 774 mmHg 82%
    22:00 +6°C° 0 mm 4 mps 773 mmHg 84%
    23:00 +5°C° 0 mm 4 mps 773 mmHg 87%

    23 October, Tuesday

    Time Temperature Precipitation Wind Pressure Humidity
    00:00 +5°C° 0 mm 4 mps 773 mmHg 89%
    01:00 +5°C° 0 mm 4 mps 773 mmHg 90%
    02:00 +5°C° 0 mm 4 mps 772 mmHg 91%
    03:00 +5°C° 0 mm 4 mps 772 mmHg 92%
    04:00 +5°C° 0 mm 4 mps 772 mmHg 93%
    05:00 +5°C° 0 mm 4 mps 771 mmHg 93%
    06:00 +5°C° 0 mm 4 mps 771 mmHg 94%
    07:00 +6°C° 0 mm 5 mps 771 mmHg 90%
    08:00 +8°C° 0 mm 6 mps 771 mmHg 86%
    09:00 +9°C° 0 mm 6 mps 771 mmHg 83%
    10:00 +10°C° 0 mm 6 mps 771 mmHg 79%
    11:00 +11°C° 0 mm 6 mps 771 mmHg 76%
    12:00 +13°C° 0 mm 6 mps 770 mmHg 72%
    13:00 +13°C° 0 mm 5 mps 770 mmHg 72%
    14:00 +13°C° 0 mm 5 mps 769 mmHg 71%
    15:00 +13°C° 0 mm 5 mps 769 mmHg 71%
    16:00 +12°C° 0 mm 5 mps 769 mmHg 75%
    17:00 +11°C° 0 mm 4 mps 769 mmHg 80%
    18:00 +10°C° 0 mm 4 mps 769 mmHg 84%
    19:00 +8°C° 0 mm 4 mps 769 mmHg 85%
    20:00 +8°C° 0 mm 4 mps 769 mmHg 87%
    21:00 +8°C° 0 mm 4 mps 769 mmHg 88%
    22:00 +7°C° 0 mm 4 mps 769 mmHg 89%
    23:00 +7°C° 0 mm 4 mps 769 mmHg 90%
    Show more